Location: Linz
(48.3300°N, 14.3000°E)
Time: 03:56:32
(UTC+01:00)

Envisat - Pass Details

Date: 14 November 2017
Orbit: 764 x 766 km, 98.2° (Epoch: 20 November)

Event Time Altitude Azimuth Distance (km) Brightness Sun altitude
Exits shadow 17:54:28 12° 34° (NE) 2,191 5.0 -14.8°
Drops below altitude 10° 17:55:13 10° 26° (NNE) 2,313 5.1 -14.9°
Sets 17:58:42 0° 1° (N) 3,244 6.1 -15.5°
